Location: Dunedin
(45.8670°S, 170.5000°E)
Time: 09:34:00
(UTC+13:00)

SL-08 RB Rocket - Pass Details

Date: 24 January 2019
Orbit: 647 x 684 km, 97.9° (Epoch: 16 February)

Event Time Altitude Azimuth Distance (km) Brightness Sun altitude
Rises 23:32:19 0° 171° (S) 3,010 7.8 -17.8°
Reaches altitude 10° 23:34:34 10° 174° (S) 2,094 7.0 -18.0°
Maximum altitude 23:39:04 60° 253° (WSW) 762 4.2 -18.5°
Enters shadow 23:42:46 15° 330° (NNW) 1,777 5.6 -18.8°
